Zurück zum Katalog

ARIANE 5 R/B

AktivHEO
NORAD 40876·ROCKET BODY·🇫🇷 France

Gestartet Aug 20, 2015 von Guiana Space Centre

Loading…

Nächste Überflüge (nächste 24 Stunden)

TLE

AktuellSource: Space-Track

Epoche: Sep 14, 2026, 18:03 UTC

1 40876U 15039C   26257.75217549  .00002883  00000-0  73400-3 0  9993
2 40876   5.0752 102.8317 7051535 139.5497 303.3916  2.57482111 97240

Verfolge ARIANE 5 R/B in Echtzeit mit AllMySat

Download on the App Store